• în România
  • Lista ţărilor
  • Pe 7 zile
  • Temperatura apei
  • Hartă satelitară
  • Meteo pe hartă
  • Widget-uri
  • user-avatar
    Intrare

    Meteo pe oră la Orehovatka

    Astăzi, 19 Aprilie, Joi

    Timp Temperatura Precipitaţii Vânt Presiune Umiditate
    00:00 +6°C° 0,3 mm 5 m/s 740 mmHg 91%
    01:00 +6°C° 0,3 mm 5 m/s 740 mmHg 91%
    02:00 +7°C° 0 mm 3 m/s 740 mmHg 91%
    03:00 +6°C° 0,4 mm 4 m/s 740 mmHg 91%
    04:00 +5°C° 0,4 mm 4 m/s 740 mmHg 91%
    05:00 +5°C° 0,4 mm 5 m/s 740 mmHg 91%
    06:00 +5°C° 0,5 mm 5 m/s 740 mmHg 91%
    07:00 +5°C° 0,5 mm 5 m/s 740 mmHg 91%
    08:00 +5°C° 0,5 mm 5 m/s 740 mmHg 90%
    09:00 +5°C° 0,4 mm 5 m/s 740 mmHg 90%
    10:00 +6°C° 0,4 mm 4 m/s 740 mmHg 89%
    11:00 +6°C° 0,4 mm 4 m/s 740 mmHg 88%
    12:00 +6°C° 0,2 mm 4 m/s 741 mmHg 86%
    13:00 +7°C° 0,2 mm 4 m/s 741 mmHg 85%
    14:00 +8°C° 0,2 mm 4 m/s 741 mmHg 84%
    15:00 +8°C° 0 mm 4 m/s 741 mmHg 80%
    16:00 +10°C° 0 mm 4 m/s 742 mmHg 77%
    17:00 +10°C° 0 mm 4 m/s 742 mmHg 74%
    18:00 +8°C° 0 mm 4 m/s 742 mmHg 77%
    19:00 +9°C° 0 mm 3 m/s 743 mmHg 79%
    20:00 +8°C° 0 mm 3 m/s 743 mmHg 81%
    21:00 +7°C° 0 mm 3 m/s 743 mmHg 82%
    22:00 +7°C° 0 mm 3 m/s 744 mmHg 84%
    23:00 +5°C° 0 mm 3 m/s 744 mmHg 85%

    Mâine, 20 Aprilie, Vineri

    Timp Temperatura Precipitaţii Vânt Presiune Umiditate
    00:00 +5°C° 0 mm 3 m/s 744 mmHg 88%
    01:00 +4°C° 0 mm 3 m/s 745 mmHg 90%
    02:00 +4°C° 0 mm 3 m/s 745 mmHg 93%
    03:00 +4°C° 0 mm 3 m/s 745 mmHg 94%
    04:00 +3°C° 0 mm 3 m/s 745 mmHg 95%
    05:00 +3°C° 0 mm 3 m/s 745 mmHg 96%
    06:00 +4°C° 0 mm 3 m/s 745 mmHg 91%
    07:00 +5°C° 0 mm 3 m/s 746 mmHg 86%
    08:00 +6°C° 0 mm 4 m/s 746 mmHg 81%
    09:00 +8°C° 0 mm 3 m/s 746 mmHg 76%
    10:00 +9°C° 0 mm 3 m/s 746 mmHg 72%
    11:00 +10°C° 0 mm 3 m/s 746 mmHg 67%
    12:00 +10°C° 0 mm 3 m/s 746 mmHg 65%
    13:00 +11°C° 0 mm 3 m/s 746 mmHg 63%
    14:00 +12°C° 0 mm 2 m/s 746 mmHg 61%
    15:00 +13°C° 0 mm 2 m/s 745 mmHg 60%
    16:00 +13°C° 0 mm 2 m/s 745 mmHg 60%
    17:00 +13°C° 0 mm 2 m/s 744 mmHg 59%
    18:00 +12°C° 0 mm 2 m/s 744 mmHg 67%
    19:00 +9°C° 0 mm 2 m/s 743 mmHg 74%
    20:00 +8°C° 0 mm 2 m/s 742 mmHg 81%
    21:00 +8°C° 0 mm 2 m/s 742 mmHg 80%
    22:00 +8°C° 0 mm 3 m/s 741 mmHg 79%
    23:00 +8°C° 0 mm 3 m/s 740 mmHg 78%

    Poimâine, 21 Aprilie, Sâmbătă

    Timp Temperatura Precipitaţii Vânt Presiune Umiditate
    00:00 +7°C° 0 mm 4 m/s 739 mmHg 80%
    01:00 +8°C° 0 mm 4 m/s 738 mmHg 83%
    02:00 +8°C° 0 mm 4 m/s 737 mmHg 85%
    03:00 +8°C° 0 mm 4 m/s 736 mmHg 87%
    04:00 +8°C° 0 mm 4 m/s 736 mmHg 88%
    05:00 +7°C° 0 mm 4 m/s 735 mmHg 90%
    06:00 +9°C° 0 mm 5 m/s 734 mmHg 86%
    07:00 +10°C° 0 mm 5 m/s 733 mmHg 82%
    08:00 +11°C° 0 mm 6 m/s 732 mmHg 77%
    09:00 +11°C° 0,2 mm 6 m/s 731 mmHg 79%
    10:00 +11°C° 0,2 mm 6 m/s 730 mmHg 80%
    11:00 +11°C° 0,2 mm 6 m/s 730 mmHg 81%
    12:00 +11°C° 0,2 mm 7 m/s 730 mmHg 76%
    13:00 +11°C° 0,2 mm 7 m/s 730 mmHg 70%
    14:00 +10°C° 0,2 mm 7 m/s 730 mmHg 65%
    15:00 +10°C° 0 mm 7 m/s 731 mmHg 62%
    16:00 +10°C° 0 mm 6 m/s 731 mmHg 59%
    17:00 +10°C° 0 mm 6 m/s 731 mmHg 56%
    18:00 +9°C° 0,1 mm 5 m/s 732 mmHg 62%
    19:00 +7°C° 0,1 mm 5 m/s 732 mmHg 69%
    20:00 +6°C° 0,1 mm 4 m/s 732 mmHg 75%
    21:00 +6°C° 0 mm 4 m/s 733 mmHg 77%
    22:00 +6°C° 0 mm 4 m/s 733 mmHg 79%
    23:00 +5°C° 0 mm 4 m/s 733 mmHg 81%

    22 Aprilie, Duminică

    Timp Temperatura Precipitaţii Vânt Presiune Umiditate
    00:00 +5°C° 0 mm 4 m/s 733 mmHg 81%
    01:00 +5°C° 0 mm 4 m/s 734 mmHg 81%
    02:00 +5°C° 0 mm 4 m/s 734 mmHg 81%
    03:00 +5°C° 0,1 mm 4 m/s 734 mmHg 82%
    04:00 +4°C° 0,1 mm 4 m/s 734 mmHg 83%
    05:00 +4°C° 0,1 mm 4 m/s 734 mmHg 84%
    06:00 +4°C° 0,2 mm 4 m/s 735 mmHg 82%
    07:00 +5°C° 0,2 mm 4 m/s 735 mmHg 81%
    08:00 +5°C° 0,2 mm 4 m/s 735 mmHg 79%
    09:00 +6°C° 0,2 mm 4 m/s 735 mmHg 76%
    10:00 +6°C° 0,2 mm 4 m/s 735 mmHg 72%
    11:00 +7°C° 0,2 mm 4 m/s 735 mmHg 69%
    12:00 +8°C° 0,4 mm 5 m/s 735 mmHg 67%
    13:00 +8°C° 0,4 mm 5 m/s 735 mmHg 66%
    14:00 +8°C° 0,4 mm 5 m/s 735 mmHg 64%
    15:00 +8°C° 0,4 mm 4 m/s 735 mmHg 67%
    16:00 +7°C° 0,4 mm 4 m/s 736 mmHg 71%
    17:00 +8°C° 0,4 mm 3 m/s 736 mmHg 74%
    18:00 +7°C° 0,2 mm 3 m/s 736 mmHg 79%
    19:00 +6°C° 0,2 mm 2 m/s 736 mmHg 84%
    20:00 +6°C° 0,2 mm 1 m/s 737 mmHg 89%
    21:00 +5°C° 0 mm 1 m/s 737 mmHg 90%
    22:00 +4°C° 0 mm 1 m/s 737 mmHg 91%
    23:00 +4°C° 0 mm 1 m/s 738 mmHg 92%

    23 Aprilie, Luni

    Timp Temperatura Precipitaţii Vânt Presiune Umiditate
    00:00 +3°C° 0 mm 1 m/s 738 mmHg 92%
    01:00 +3°C° 0 mm 1 m/s 738 mmHg 91%
    02:00 +3°C° 0 mm 1 m/s 739 mmHg 90%
    03:00 +2°C° 0 mm 1 m/s 739 mmHg 90%
    04:00 +2°C° 0 mm 1 m/s 739 mmHg 90%
    05:00 +1°C° 0 mm 1 m/s 739 mmHg 90%
    06:00 +3°C° 0 mm 1 m/s 740 mmHg 82%
    07:00 +4°C° 0 mm 1 m/s 740 mmHg 75%
    08:00 +6°C° 0 mm 1 m/s 740 mmHg 67%
    09:00 +7°C° 0 mm 1 m/s 740 mmHg 61%
    10:00 +9°C° 0 mm 1 m/s 740 mmHg 55%
    11:00 +10°C° 0 mm 1 m/s 740 mmHg 49%
    12:00 +11°C° 0 mm 1 m/s 740 mmHg 47%
    13:00 +11°C° 0 mm 1 m/s 740 mmHg 44%
    14:00 +12°C° 0 mm 1 m/s 740 mmHg 41%
    15:00 +12°C° 0 mm 1 m/s 740 mmHg 42%
    16:00 +10°C° 0 mm 0 m/s 739 mmHg 43%
    17:00 +10°C° 0 mm 0 m/s 739 mmHg 43%
    18:00 +9°C° 0 mm 1 m/s 739 mmHg 49%
    19:00 +8°C° 0 mm 1 m/s 739 mmHg 55%
    20:00 +6°C° 0 mm 1 m/s 739 mmHg 61%
    21:00 +5°C° 0 mm 1 m/s 739 mmHg 63%
    22:00 +5°C° 0 mm 1 m/s 738 mmHg 65%
    23:00 +3°C° 0 mm 2 m/s 738 mmHg 67%

    24 Aprilie, Marţi

    Timp Temperatura Precipitaţii Vânt Presiune Umiditate
    00:00 +3°C° 0 mm 2 m/s 738 mmHg 70%
    01:00 +3°C° 0 mm 2 m/s 738 mmHg 72%
    02:00 +2°C° 0 mm 2 m/s 737 mmHg 75%
    03:00 +3°C° 0 mm 2 m/s 737 mmHg 76%
    04:00 +2°C° 0 mm 3 m/s 737 mmHg 77%
    05:00 +2°C° 0 mm 3 m/s 736 mmHg 78%
    06:00 +3°C° 0,1 mm 3 m/s 736 mmHg 76%
    07:00 +4°C° 0,1 mm 4 m/s 736 mmHg 73%
    08:00 +5°C° 0,1 mm 4 m/s 735 mmHg 70%
    09:00 +6°C° 0,4 mm 4 m/s 735 mmHg 72%
    10:00 +6°C° 0,4 mm 4 m/s 735 mmHg 74%
    11:00 +6°C° 0,4 mm 5 m/s 734 mmHg 76%
    12:00 +6°C° 0,3 mm 4 m/s 734 mmHg 77%
    13:00 +7°C° 0,3 mm 4 m/s 734 mmHg 78%
    14:00 +7°C° 0,3 mm 4 m/s 734 mmHg 80%
    15:00 +6°C° 0,6 mm 4 m/s 733 mmHg 82%
    16:00 +6°C° 0,6 mm 4 m/s 733 mmHg 85%
    17:00 +7°C° 0,6 mm 3 m/s 733 mmHg 88%
    18:00 +5°C° 0,7 mm 3 m/s 732 mmHg 90%
    19:00 +5°C° 0,7 mm 3 m/s 732 mmHg 91%
    20:00 +5°C° 0,7 mm 3 m/s 732 mmHg 93%
    21:00 +5°C° 0,2 mm 2 m/s 732 mmHg 94%
    22:00 +5°C° 0,2 mm 2 m/s 731 mmHg 95%
    23:00 +5°C° 0,2 mm 2 m/s 731 mmHg 95%
    Arată mai mult